Погода Верховье Лотты

Погода Верховье Лотты : погода сейчас, прогноз погоды и архив. Всё, что Вы хотите узнать о погоде Верховье Лотты!

Поиск расширенной информации на нашем сайте:

Другие новости

Новости СМИ2

Главная страница сайта

Новости сайта

03.07.2017

Напоминаем, что на нашем специализированном сайте Метеоцентр.Азия вы можете получить высокодетализированные автоматические прогнозы погоды по пунктам России, СНГ и мира в авиационном формате (включающие направление и скорость ветра, видимость, явления погоды, количество и форму облачности, нижнюю и верхнюю границу облачности).


Погода Верховье Лотты - сегодня

Время (UTC), дата Ветер
(°,м/с) 
Видим.   Явления Облачность Т
(°С)
Тd
(°С)
f(%) Тe
(°С)
Pmin
(гПа)
dP
(гПа)
Po
(мм)
O2
(г/м3)
Тmin Tmax R s Состояние
почвы
00 17.10.17 350 (С) 1-3  н/о    н/о 
+0.9 +0.9 100 +2  991.6  2.2  733  294           
03 17.10.17 330 (СЗ) 1-3  н/о    н/о 
+1.7 +1.7 100 +2  994  2.4  735  294  +0.4         
09 17.10.17 320 (СЗ) 1-3  н/о    н/о 
+3.3 +3.3 100 +4  997.4  1.7  737  293           
12 17.10.17 310 (СЗ) 1-3  н/о    н/о 
+3.8 +3.6 99 +5  998.3  0.9  738  293           
15 17.10.17 290 (З) 1-2  н/о    н/о 
+2.9 +2.8 99 +4  998.5  0.1  738  294           
18 17.10.17 280 (З) 1-2  н/о    н/о 
+2.5 +2.5 100 +3  998.1  -0.4  738  294    +3.9       
21 17.10.17 тихо ()   н/о    н/о 
+2.1 +2.1 100 +2  997.8  -0.3  738  295           
00 18.10.17 тихо ()   н/о    н/о 
+1.9 +1.9 100 +2  997.4  -0.4  737  295           
03 18.10.17 тихо ()   н/о    н/о 
+1.2 +1.2 100 +1  997.2  -0.4  737  296  +0.7         
06 18.10.17 290 (З) 1-2  н/о    н/о 
+1.2 +1.2 100 +2  997.2  737  296  +0.7         
09 18.10.17 тихо ()   н/о    н/о 
+1.9 +1.9 100 +2  998.5  1.4  738  295           
12 18.10.17 020 (С) 1-4  н/о    н/о 
+3.7 +3.7 100 +5  999.9  1.5  739  293           
15 18.10.17 020 (С) 1-3  н/о    н/о 
+3.2 +3.2 100 +4  1001.9  741  295           
18 18.10.17 040 (СВ) 2-5  н/о    н/о 
+2.3 +2.3 100 +2  1004.8  2.8  743  296    +4       
21 18.10.17 030 (СВ) 1-4  н/о    н/о 
+1.1 +1.1 100 +2  1007.5  2.5  745  299           
00 19.10.17 010 (С) 1-3  н/о    н/о 
+0.5 +0.5 100 +1  1009.6  746  300           
03 19.10.17 360 (С) 1-4  н/о    н/о 
+0.5 +0.5 100 +1  1011.6  748  301  +0.4         
06 19.10.17 010 (С) 1-3  н/о    н/о 
+0.3 -0.1 97 +1  1013.2  1.6  749  301  +0.2         
09 19.10.17 010 (С) 1-2  н/о    н/о 
+1.2 -0.1 91 +2  1015.2  1.9  751  301           
12 19.10.17 тихо ()   н/о    н/о 
+1.6 +0.1 90 +2  1016.8  1.6  752  301           
15 19.10.17 тихо ()   н/о    н/о 
-0.1 -0.5 97 -0  1017.8  752  303           
18 19.10.17 тихо ()   н/о    н/о 
-0.5 -0.5 100 -1  1018.6  0.7  753  304    +1.7       
21 19.10.17 тихо ()   н/о    н/о 
-2.1 -2.1 100 -2  1019.7  754  306           
00 20.10.17 тихо ()   н/о    н/о 
-4 -4 100 -4  1020.2  0.4  754  309           
03 20.10.17 тихо ()   н/о    н/о 
-4 -4 100 -4  1021  0.8  755  309  -4.5         
Время (UTC), дата Ветер
(°,м/с) 
Видим.   Явления Облачность Т
(°С)
Тd
(°С)
f(%) Тe
(°С)
Pmin
(гПа)
dP
(гПа)
Po
(мм)
O2
(г/м3)
Тmin Tmax R s Состояние
почвы

Для получения пояснительной информации подведите курсор к названию столбца.

ПОГОДА Верховье Лотты - архив

Всё, что Вы хотите узнать о погоде Верховье Лотты - удобно и подробно!

Выберите нужную дату (начиная с 1 января 2015* года) и нажмите кнопку "Найти".
Будут отображены архивные сводки погоды по пункту Верховье Лотты, начиная с указанной даты.


Отображать данные в формате CSV (для использования в таблицах Excel)


Внимание! Наш архив погоды предназначен исключительно для личного некоммерческого использования в познавательных целях. Если Вам необходимы официальные справки о состоянии погоды (для производственных, юридических, коммерческих и т.п. целей), обращайтесь в органы Росгидромета.

*Примечание: данная дата относится к архиву по метеостанциям СССР (Россия, СНГ, Балтия).
Архив по метеостанциям Зарубежной Европы и Азии (кроме Китая) хранится 10 дней, по другим регионам земного шара (Китай, Африка, Америка, Австралия, Океания) - 1 день.

Верховье Лотты - район местоположения метеостанции


Название, широта, долгота, высота метеостанции:
Верховье Лотты 68.4°ш. 28.7°д. 120 м над ур. моря [Российская Федерация]

Дополнительная информация

В oтличие oт бoльшинства пoгoдных сайтoв мы публикуем пoдрoбную метеoинфoрмацию в детальнoм прoфессиoнальнoм фoрмате.

Характеристики температуры и влажнoсти вoздуха измеряются на высoте 2 м в тени вдали oт зданий и деревьев.
Скoрoсть ветра измеряется на высoте 10 м (на урoвне рoста челoвека скoрoсть ветра ниже в 1.5-2 раза). Если метеoстанция нахoдится в гoрoде или в лесу, тo скoрoсть ветра занижена на 2-4 м/с пo сравнению с oткрытым местoм. Скoрoсть ветра над акватoриями крупных рек и oзёр, а также на вершинах хoлмoв на 2-5 м/с выше, чем в oбычных услoвиях.
Атмoсфернoе давление в разных тoчках местнoсти мoжет значительнo oтличаться oт давления на метеoстанции, в зависимoсти oт услoвий рельефа (при пoдъёме на 10 м давление пoнижается примернo на 1 мм рт.ст.).